CZ-3A R/B, 41435

Orbit data source: Space-Track

CZ-3A R/B, 41435 is space debris in HEO originally from a launch on Tue, 29 Mar 2016 UTC launched from the Xichang Space Center, China (XSC). Debris objects in space refer to the collection of defunct objects orbiting the Earth. Examples of debris include non-operational satellites, rocket bodies, and fragments generated from explosions, collisions, or faulty payload assembly.

Loading next visibility...
Identifier
41435, 2016-021B
Orbit
HEO
Country
Flag of CNCN / PRC
Related business
Manufacturer
CALT
Mission
Spacecraft
Bus & Motor
CZ-3A STAGE 3, Unknown motor
Mass
~2,800 kg wet, ~2,800 kg dry
Launch date (UTC)
2016-03-29 (10 years ago)
Launch vehicle
Unknown
Launch site
Xichang Space Center, China (XSC)
Object type
Payload
Rocket body
Debris
Shape & HBR
Cyl + 1 Nozzle, 6.2 m
Radar Cross Section
32.704 m², Large (>1 m²)

Expand to show TLE details & history
Last TLE update: 2 days ago

TLE from 2 days ago
0 CZ-3A R/B
1 41435U 16021B   26035.06250950 -.00000124  00000-0  00000-0 0  9998
2 41435  55.0418  26.0087 6659035 257.6385  25.8775  2.39507387 85792
Epoch: 2026-02-04T01:30Z
TLE epoch observation values (Epoch: 2026-02-04T01:30:00.820Z)
Latitude
-0.00005°
Longitude
-130.77309°
Altitude
8,929.06 km
Speed
5.932 km/s
True Right ascension
01h 43m 51s
True Declination
0° 00' 00"
Sunlit
Object was in daylight at epoch
Visualization orbit readout
Latitude
Unknown
Longitude
Unknown
Altitude
Unknown
Speed
Unknown
Apparent Right ascension
Unknown
Apparent Declination
Unknown
Sunlit
N/A
Visualization observer readout
Local Sidereal Time
18:06:29
Azimuth
Unknown
Elevation
Unknown
Doppler factor
Unknown
Orbital elements
Apogee altitude
32,932.075 km
Perigee altitude
1,505.515 km
Semi-major axis
23,596.932 km
Eccentricity
0.6659
Inclination
55.0418°
RAAN
26.0087°
Arg. of periapsis
257.6385°
True anomaly
102.54397°
Mean anomaly
25.8775°
Eccentric anomaly
58.35979°
Mean motion
0.59877 °/min
Orbital period
601.23 mins
BSTAR
0
Loading maneuver chart data...
Computing Atmospheric mass density...
Loading historical data...
Loading historical data...
Loading historical data...
Loading historical data...
Loading historical data...
Loading historical data...
Loading historical data...
Other satellites on launch #21 in the year 2016 (2016-03-29 UTC)

Documentation

Showing up to 5 results
|